Wind_Speed
27 26 25 24 23 23 22 22 21 19 17 17 17 16 16 15 16 17 18 19 19 19 18 18 17 15 14 13 12 11 10 9 8 8 9 10 11 12 13 14 14 15
29 28 27 26 25 24 23 22 22 20 18 18 17 17 17 18 19 19 20 21 21 21 20 19 18 16 15 14 13 12 11 10 10 10 11 12 12 13 14 15 16 16
30 30 29 28 26 24 23 23 23 22 20 19 19 19 19 20 20 21 22 22 23 23 22 20 19 18 17 15 14 13 12 12 12 12 12 13 14 14 15 16 17 17
32 31 30 29 27 26 25 25 24 23 21 20 20 20 21 22 22 23 23 24 24 24 22 21 20 19 18 17 16 14 13 13 13 14 14 15 15 15 16 17 17 18
33 32 32 31 30 28 27 26 25 24 22 21 20 21 22 23 23 24 24 24 25 24 23 22 20 19 18 18 17 15 15 14 15 15 15 16 17 17 18 18 18 18
34 34 34 33 32 31 30 28 26 25 24 22 22 22 23 23 24 24 24 25 25 24 23 22 21 20 19 18 17 16 16 16 17 17 17 17 18 19 19 19 19 18
33 33 33 33 32 31 31 29 27 26 25 23 24 24 24 25 25 25 25 25 25 25 24 23 22 21 20 19 18 17 17 17 18 19 18 18 19 20 20 20 20 19
29 30 31 31 31 31 31 30 28 27 26 25 25 26 26 26 26 26 26 26 26 25 25 24 23 22 22 20 19 18 18 18 19 20 20 20 20 21 21 21 21 20
27 28 29 30 31 31 30 30 29 27 26 26 26 26 27 27 27 27 27 27 27 27 26 25 24 24 23 21 20 19 19 19 19 20 20 21 22 22 22 22 22 21
26 27 28 30 30 30 29 29 29 28 27 27 27 27 29 29 29 29 29 29 29 29 28 26 26 25 24 22 21 20 20 20 20 21 21 22 23 23 24 24 23 22
26 27 28 29 29 29 29 29 28 28 27 27 28 28 30 31 31 31 30 31 30 30 29 27 27 26 25 24 22 21 21 21 21 22 22 22 23 24 25 25 24 22
26 27 28 28 28 28 29 28 27 27 27 28 28 29 30 32 32 32 32 31 31 30 30 28 28 27 26 25 24 23 23 23 23 23 22 22 23 24 25 25 25 23
26 27 28 27 27 27 28 28 27 27 27 28 29 30 31 33 33 33 33 31 31 31 30 29 29 28 27 27 26 26 25 25 24 24 23 23 23 24 25 25 25 24
27 28 28 27 27 27 27 27 27 28 28 28 29 31 32 33 34 34 33 32 32 32 32 31 31 30 30 29 28 28 27 26 26 25 24 23 23 24 25 26 26 26
28 29 29 28 28 28 27 28 28 28 29 29 30 31 32 34 35 35 34 34 34 34 33 33 33 33 32 31 30 29 29 28 27 26 25 25 24 25 26 28 28 27
29 30 30 30 30 29 28 28 28 28 29 29 30 30 32 34 35 36 35 35 35 35 35 35 35 35 34 33 32 31 31 31 29 28 27 26 26 26 27 28 28 26
31 31 32 32 32 32 31 30 29 29 29 29 29 30 31 33 35 36 36 36 36 36 36 37 37 36 35 34 34 33 33 32 31 29 28 28 27 27 28 28 27 27
33 33 34 34 34 34 33 32 30 30 29 29 30 30 31 33 35 36 37 37 37 37 37 38 38 37 36 36 36 35 34 33 31 30 29 29 28 27 27 28 28 27
34 35 36 36 36 36 35 34 33 32 31 30 30 31 32 33 34 35 37 38 38 38 39 39 39 38 37 37 37 36 34 33 31 30 30 29 27 27 28 30 28 25
33 35 37 37 37 37 37 37 36 34 33 32 32 32 33 35 35 36 37 39 40 40 40 40 40 39 39 39 38 36 34 33 31 30 30 29 29 31 33 32 28 24
33 35 36 38 38 39 39 40 39 37 35 35 34 35 35 35 36 37 38 39 41 41 41 41 40 40 40 40 39 36 34 33 31 31 31 31 33 35 34 31 28 25
35 36 37 37 38 39 41 41 41 40 39 38 37 37 37 37 37 37 38 40 41 42 42 42 41 41 41 40 39 37 35 34 33 32 33 34 34 35 34 32 29 26
32 35 37 38 39 40 41 42 42 42 41 41 41 40 40 40 40 39 39 40 42 43 43 43 42 42 42 41 39 37 36 35 34 33 34 35 35 35 35 34 30 27
27 30 32 34 37 39 40 41 42 42 43 43 43 43 43 42 41 41 41 41 42 43 43 43 43 42 42 41 39 38 37 36 34 34 35 36 35 35 34 35 32 28
25 26 26 27 29 31 34 36 38 41 43 44 45 45 46 45 44 43 43 43 43 43 43 43 43 43 43 42 40 39 38 37 35 35 36 37 36 35 35 36 35 32
26 26 25 25 26 28 30 32 35 38 41 43 46 47 48 48 47 46 46 45 44 44 44 44 44 44 43 42 40 39 38 37 37 37 37 37 37 35 36 37 37 35
Wind_Direction
230 230 231 233 236 237 238 238 240 237 226 215 210 208 206 205 204 204 199 197 198 200 205 208 211 215 220 225 231 238 247 257 266 279 291 301 310 318 323 328 332 334
232 232 233 233 234 237 239 241 242 240 231 218 210 205 205 205 204 203 199 197 199 202 206 210 213 218 224 229 234 240 248 257 265 275 285 292 302 310 315 319 322 325
232 233 234 235 236 238 240 243 244 243 236 223 213 207 204 204 204 203 201 199 201 203 207 211 216 220 226 232 237 241 248 258 265 273 281 288 297 305 309 313 316 318
233 234 236 238 240 240 240 241 243 244 238 226 216 210 206 204 203 203 201 201 203 205 208 213 218 222 227 232 238 243 249 257 265 272 279 286 293 299 302 306 310 312
235 237 239 241 241 241 241 241 242 242 239 228 219 214 209 206 204 203 202 203 205 207 210 215 221 225 228 232 237 243 249 257 264 271 277 282 287 292 295 300 304 306
235 238 240 242 242 241 241 242 242 241 239 230 221 216 211 207 206 205 204 204 207 209 212 217 222 226 229 232 236 241 248 256 263 270 275 279 283 287 290 294 297 300
236 237 238 240 241 240 240 241 241 239 238 232 223 217 213 209 207 207 206 207 209 212 215 219 222 226 230 232 235 240 246 253 260 267 273 277 280 283 288 290 292 294
235 236 237 238 239 240 239 239 239 238 237 233 225 217 213 211 208 208 208 208 211 214 216 219 222 226 230 232 234 239 245 250 257 264 270 275 278 281 284 286 287 289
232 234 236 237 238 239 238 238 238 237 237 234 227 219 214 212 211 210 210 211 213 216 218 220 223 227 231 233 235 239 244 249 255 261 267 272 275 279 281 283 284 286
231 233 235 237 238 239 238 238 237 237 236 233 229 222 215 212 212 212 212 213 214 217 220 222 225 229 231 234 237 240 244 248 253 258 263 269 273 276 278 280 282 283
231 233 236 238 239 239 238 238 237 236 234 232 230 223 216 213 214 215 215 215 216 219 222 224 226 230 232 235 238 240 243 247 252 256 260 266 271 274 277 279 280 280
232 235 238 240 239 239 239 238 236 234 231 230 228 224 218 214 215 217 218 217 218 221 223 225 227 231 234 236 239 241 243 246 250 254 258 263 268 273 276 278 278 278
234 237 240 241 240 239 238 237 234 231 229 228 227 224 220 216 216 219 220 220 220 222 224 225 228 231 235 237 240 242 244 247 250 253 257 261 266 270 273 275 276 276
234 238 240 241 241 240 238 236 233 230 228 226 225 223 220 217 217 219 221 221 221 222 224 225 228 232 235 237 240 242 245 248 250 253 256 260 263 266 269 272 273 273
233 236 238 240 241 239 237 235 233 230 228 226 224 223 221 219 218 219 221 222 222 223 225 226 229 233 235 237 239 242 245 248 250 253 256 259 261 263 266 269 271 272
233 235 237 239 240 240 238 237 235 232 230 227 225 224 222 220 219 220 222 223 223 223 225 227 230 233 235 236 238 241 244 246 249 252 255 258 260 262 265 268 271 271
233 234 236 237 240 241 240 238 237 235 232 230 228 226 224 223 221 221 223 224 225 225 227 229 232 234 235 237 238 240 242 245 248 251 255 257 259 262 266 269 269 267
235 236 236 237 238 240 242 241 239 238 235 232 231 229 227 226 224 224 224 225 227 227 229 231 233 235 236 237 239 240 241 243 246 250 254 258 260 264 267 266 266 269
238 238 238 237 237 238 240 241 240 239 237 235 234 232 231 230 229 227 227 227 229 229 231 233 234 235 237 238 240 241 241 241 244 249 255 259 262 263 264 265 272 286
242 242 241 240 239 237 238 240 240 240 239 237 236 234 234 233 232 230 229 230 231 231 232 233 234 236 238 239 240 240 240 240 243 249 254 259 261 262 265 271 278 290
245 245 243 242 240 238 238 238 240 240 239 239 237 235 236 236 234 233 232 232 232 232 233 234 234 236 237 239 240 239 238 240 243 248 254 258 261 264 269 274 277 282
247 247 245 244 242 241 239 239 239 240 240 240 239 237 237 237 236 234 234 233 233 233 233 234 235 236 237 239 239 237 237 240 243 247 253 258 262 266 271 273 275 278
248 248 248 247 245 243 242 240 239 239 239 240 241 239 237 237 237 236 235 235 234 233 234 234 234 236 237 238 238 236 236 239 243 248 254 258 261 265 269 272 273 275
252 251 250 250 249 249 248 247 244 242 240 240 241 242 240 238 237 237 237 236 236 234 234 235 235 236 237 237 236 234 235 239 243 248 253 257 260 264 268 271 272 273
260 258 254 253 255 255 254 252 251 249 244 241 240 242 243 241 239 238 238 238 238 237 236 236 236 236 236 236 235 233 234 238 243 248 253 257 261 264 267 269 270 271
264 263 259 258 258 258 256 254 252 251 249 246 242 241 242 243 241 239 238 238 238 237 236 236 236 236 236 235 234 232 234 238 242 248 253 257 261 264 265 266 268 270
Height
3182 3184 3186 3188 3189 3191 3193 3194 3195 3196 3197 3198 3199 3201 3203 3204 3205 3206 3208 3209 3210 3211 3213 3214 3214 3215 3215 3216 3217 3217 3217 3217 3217 3217 3217 3216 3215 3215 3214 3214 3213 3212
3180 3182 3184 3185 3187 3189 3191 3192 3193 3194 3196 3197 3198 3199 3200 3201 3203 3204 3206 3207 3208 3209 3211 3212 3212 3213 3214 3215 3215 3215 3215 3215 3215 3215 3215 3214 3214 3213 3213 3212 3211 3211
3177 3179 3181 3183 3185 3187 3189 3190 3191 3192 3194 3195 3196 3197 3198 3199 3201 3202 3203 3205 3206 3207 3208 3209 3210 3211 3212 3213 3214 3214 3214 3214 3214 3213 3213 3212 3212 3212 3211 3210 3210 3209
3175 3177 3178 3180 3182 3185 3186 3187 3189 3190 3191 3193 3194 3195 3196 3197 3198 3199 3201 3203 3204 3205 3206 3207 3208 3209 3210 3211 3211 3212 3211 3212 3211 3211 3211 3210 3210 3210 3209 3209 3208 3208
3173 3175 3176 3178 3180 3182 3183 3184 3186 3188 3189 3191 3192 3193 3194 3195 3196 3197 3199 3200 3202 3203 3204 3205 3206 3208 3209 3209 3209 3209 3209 3209 3209 3208 3208 3208 3208 3208 3207 3207 3207 3207
3170 3172 3173 3175 3177 3179 3180 3181 3183 3185 3187 3188 3190 3191 3192 3193 3194 3195 3197 3198 3200 3201 3202 3203 3204 3205 3206 3207 3207 3207 3207 3207 3206 3206 3206 3206 3206 3205 3205 3205 3205 3205
3167 3169 3171 3172 3174 3175 3177 3179 3181 3182 3184 3186 3187 3188 3189 3191 3192 3193 3195 3196 3197 3199 3200 3201 3202 3203 3204 3204 3205 3205 3205 3204 3204 3203 3204 3204 3203 3203 3203 3203 3203 3203
3165 3166 3168 3169 3171 3172 3173 3175 3177 3179 3181 3183 3184 3185 3187 3188 3190 3191 3192 3193 3194 3196 3197 3198 3199 3200 3201 3202 3202 3202 3202 3202 3202 3201 3201 3201 3201 3201 3201 3201 3201 3201
3162 3163 3165 3166 3167 3169 3170 3172 3174 3177 3179 3180 3181 3183 3184 3186 3188 3189 3190 3191 3192 3193 3194 3196 3197 3197 3198 3199 3199 3200 3200 3200 3199 3199 3199 3199 3198 3199 3199 3199 3199 3199
3159 3161 3162 3163 3164 3165 3167 3169 3171 3174 3175 3177 3179 3180 3182 3183 3185 3186 3188 3188 3189 3190 3191 3193 3194 3194 3195 3196 3197 3197 3197 3197 3197 3196 3196 3196 3196 3196 3196 3196 3196 3197
3156 3158 3158 3159 3161 3162 3164 3166 3168 3170 3172 3174 3176 3177 3179 3180 3182 3183 3185 3186 3187 3188 3189 3190 3191 3192 3192 3193 3194 3194 3194 3194 3194 3193 3193 3194 3194 3193 3194 3194 3194 3194
3153 3154 3155 3156 3158 3160 3162 3164 3165 3167 3169 3170 3172 3174 3176 3177 3179 3180 3182 3183 3184 3185 3186 3187 3188 3189 3189 3190 3191 3191 3191 3191 3191 3191 3191 3191 3191 3191 3191 3191 3191 3191
3150 3151 3152 3154 3155 3157 3159 3161 3162 3164 3165 3167 3169 3170 3172 3174 3175 3177 3179 3180 3182 3182 3183 3184 3185 3186 3186 3187 3187 3187 3188 3188 3188 3188 3188 3189 3189 3189 3189 3189 3189 3188
3147 3149 3150 3152 3153 3155 3156 3157 3159 3160 3162 3163 3165 3166 3168 3170 3172 3174 3175 3177 3178 3179 3180 3181 3182 3182 3183 3183 3184 3184 3185 3185 3185 3185 3186 3186 3187 3187 3187 3187 3186 3186
3145 3146 3148 3149 3150 3151 3153 3154 3156 3157 3158 3160 3161 3163 3165 3166 3168 3170 3171 3173 3174 3175 3177 3177 3178 3178 3179 3180 3181 3182 3182 3182 3182 3183 3183 3184 3184 3185 3185 3184 3184 3184
3142 3143 3145 3146 3147 3148 3150 3151 3152 3154 3155 3156 3158 3159 3161 3162 3164 3166 3167 3168 3170 3171 3172 3173 3174 3175 3176 3177 3178 3179 3179 3179 3179 3180 3181 3181 3182 3182 3182 3182 3183 3183
3138 3140 3142 3143 3144 3145 3146 3148 3149 3150 3152 3153 3154 3156 3157 3158 3160 3161 3163 3164 3166 3167 3169 3169 3170 3172 3173 3174 3175 3176 3176 3176 3177 3178 3178 3179 3179 3180 3181 3181 3180 3180
3135 3136 3138 3140 3141 3142 3143 3144 3146 3147 3148 3150 3151 3152 3153 3154 3156 3157 3159 3160 3162 3163 3164 3165 3167 3168 3170 3170 3171 3172 3173 3174 3174 3175 3175 3176 3176 3177 3178 3177 3177 3178
3131 3133 3134 3136 3137 3139 3140 3141 3142 3143 3144 3146 3147 3149 3150 3150 3152 3153 3155 3156 3157 3159 3160 3161 3163 3165 3166 3167 3167 3169 3170 3171 3172 3172 3172 3173 3173 3173 3172 3171 3174 3177
3128 3129 3130 3132 3134 3135 3136 3137 3137 3139 3140 3142 3143 3145 3145 3146 3148 3149 3151 3152 3153 3155 3156 3157 3159 3161 3162 3163 3164 3165 3166 3167 3168 3169 3169 3168 3167 3166 3166 3168 3171 3173
3123 3125 3126 3127 3129 3131 3131 3132 3133 3135 3136 3138 3139 3140 3141 3142 3144 3146 3147 3148 3149 3150 3152 3153 3155 3157 3158 3159 3160 3162 3163 3164 3165 3165 3164 3163 3162 3162 3163 3165 3166 3167
3119 3120 3122 3123 3124 3126 3127 3128 3129 3131 3132 3133 3134 3136 3137 3138 3139 3141 3142 3143 3145 3146 3147 3149 3151 3152 3153 3155 3156 3158 3159 3159 3160 3160 3159 3158 3158 3158 3160 3161 3161 3163
3115 3116 3117 3119 3120 3121 3122 3124 3125 3127 3128 3129 3130 3131 3132 3133 3134 3136 3138 3139 3140 3141 3142 3144 3146 3148 3149 3151 3153 3154 3155 3155 3156 3156 3155 3154 3154 3155 3155 3156 3156 3158
3111 3112 3113 3114 3115 3117 3118 3120 3121 3123 3124 3125 3126 3126 3127 3128 3130 3131 3133 3134 3135 3137 3138 3140 3142 3143 3145 3146 3148 3150 3150 3151 3151 3151 3150 3149 3150 3151 3152 3151 3151 3152
3107 3108 3109 3110 3111 3113 3114 3115 3117 3118 3119 3120 3121 3122 3123 3124 3125 3126 3127 3128 3130 3132 3134 3136 3137 3139 3140 3142 3143 3145 3146 3146 3146 3145 3145 3145 3146 3147 3148 3147 3147 3147
3104 3105 3106 3107 3108 3109 3110 3111 3112 3113 3113 3114 3116 3116 3117 3118 3119 3121 3121 3123 3125 3126 3128 3130 3132 3133 3135 3137 3139 3140 3141 3141 3141 3140 3140 3141 3142 3143 3143 3143 3142 3142